Location: Gälforsberget
(66.6500°N, 22.4167°E)
Time: 05:26:23
(UTC+00:00)

Cosmos 2360 Rocket - Pass Details

Date: 11 April 2026
Orbit: 831 x 845 km, 71.0° (Epoch: 10 May)

Event Time Altitude Azimuth Distance (km) Brightness Sun altitude
Rises 20:25:18 0° 241° (WSW) 3,390 5.4 -11.4°
Reaches altitude 10° 20:27:45 10° 243° (WSW) 2,459 4.7 -11.5°
Maximum altitude 20:33:24 78° 330° (NNW) 868 2.4 -11.8°
Drops below altitude 10° 20:39:07 10° 58° (ENE) 2,475 4.7 -12.1°
Sets 20:41:34 0° 59° (ENE) 3,414 5.4 -12.2°
